User: anonymous   Login
Location: Unspecified
(0.0000°N, 0.0000°E)
Time: 10:17:41
(UTC+00:00)
Language:

NOSS 2-3 (E) - Orbit

View from above orbital plane
View from above orbital plane
View from above satellite
View from above satellite

Ground track
Ground track

The orbit data is extracted from the following two-line orbital elements,

1 23936U 96029E   17287.27435012 0.00000000  00000-0  00000-0 0    01
2 23936  63.3730 107.4912 0614000  13.1746 346.8254 13.40874725    07
Epoch (UTC): 14 October 2017 06:35:03
Eccentricity: 0.0614000
inclination: 63.3730°
perigee height: 646 km
apogee height: 1565 km
right ascension of ascending node: 107.4912°
argument of perigee: 13.1746°
revolutions per day: 13.40874725
mean anomaly at epoch: 346.8254°
orbit number at epoch: 0

The dashed part of the orbit path shows where the satellite is in the earth's shadow,  

DLR